Location: Observatorio Las Palmas
(29.0667°N, 110.9333°W)
Time: 13:25:48
(UTC-07:00)

Skynet4D Del rocket - Visible Passes

Search period start: 20 August 2014 00:00
Search period end: 30 August 2014 00:00
Orbit: 763 x 1291 km, 26.9° (Epoch: 20 August)

Date Brightness Start Highest point End Pass type
(mag) Time Alt. Az. Time Alt. Az. Time Alt. Az.
20 Aug 4.7 20:18:22 10° WSW 20:26:28 54° SSE 20:30:34 29° E visible
20 Aug 5.4 22:11:26 10° W 22:16:13 38° WSW 22:16:13 38° WSW visible
21 Aug 5.1 19:07:13 10° SW 19:14:55 42° SSE 19:22:31 10° E visible
21 Aug 4.4 20:59:42 10° WSW 21:08:01 70° S 21:09:35 57° ESE visible
21 Aug 6.3 22:53:09 10° W 22:55:14 19° W 22:55:14 19° W visible
22 Aug 4.7 19:48:12 10° WSW 19:56:23 60° SSE 20:02:52 17° E visible
22 Aug 4.6 21:41:19 10° W 21:48:30 66° WSW 21:48:30 66° WSW visible
23 Aug 4.5 20:29:36 10° WSW 20:37:58 74° S 20:41:42 36° E visible
23 Aug 5.6 22:23:01 10° W 22:27:20 34° W 22:27:20 34° W visible
24 Aug 4.7 19:18:08 10° WSW 19:26:17 65° SSE 19:34:28 10° E visible
24 Aug 4.3 21:11:14 10° W 21:19:38 78° S 21:20:28 71° SE visible
24 Aug 6.6 23:04:47 10° W 23:06:05 15° W 23:06:05 15° W visible
25 Aug 4.6 19:59:36 10° W 20:07:54 76° S 20:13:33 23° E visible
25 Aug 5.0 21:52:56 10° W 21:59:11 52° WSW 21:59:11 52° WSW visible
26 Aug 4.5 20:41:13 10° W 20:49:35 77° S 20:52:14 48° ESE visible
26 Aug 6.1 22:34:43 10° W 22:37:51 25° W 22:37:51 25° W visible
27 Aug 4.6 19:29:41 10° W 19:37:50 77° S 19:45:16 14° E visible
27 Aug 4.5 21:22:55 10° W 21:30:53 67° SSW 21:30:53 67° SSW visible
28 Aug 4.6 20:11:17 10° W 20:19:30 75° S 20:23:54 32° ESE visible
28 Aug 5.6 22:04:42 10° W 22:09:31 35° WSW 22:09:31 35° WSW visible
29 Aug 4.7 18:59:51 10° W 19:07:47 78° S 19:16:10 10° E visible
29 Aug 4.6 20:52:57 10° W 21:01:07 63° SSW 21:02:33 55° SSE visible
29 Aug 6.6 22:46:49 10° W 22:48:10 15° W 22:48:10 15° W visible
